Waarnemingen

Advertentie
Mijn weer
Hoorn-A, Nederland (6212): temperatuur & dauwpunt: 18.11.2017 17:00:00 - 24.11.2017 17:00:00 (CET)Hoorn-A, Nederland (6212): windsnelheid & windstoten: 18.11.2017 17:00:00 - 24.11.2017 17:00:00 (CET)Hoorn-A, Nederland (6212): windrichting: 18.11.2017 17:00:00 - 24.11.2017 17:00:00 (CET)Hoorn-A, Nederland (6212): luchtdruk: 18.11.2017 17:00:00 - 24.11.2017 17:00:00 (CET)Hoorn-A, Nederland (6212): zicht: 18.11.2017 17:00:00 - 24.11.2017 17:00:00 (CET)
Datum & Tijd tt [°C] td [°C] ff [km/u] ff [kn] fx [km/u] fx [kn] dd ppp [hPa] vv [km]
24.11.2017 17:00:00 8,6 1,1 29 16 36 19 W 1010,7 10
24.11.2017 16:00:00 8,8 1,0 31 17 - - W 1010,3 10
24.11.2017 15:00:00 9,0 1,2 29 16 32 18 W 1010,0 10
24.11.2017 14:00:00 9,0 2,3 29 16 40 21 W 1009,6 10
24.11.2017 13:00:00 9,1 2,4 16 9 - - ZW 1009,3 10
24.11.2017 12:00:00 9,4 2,2 22 12 25 14 ZW 1008,9 10
24.11.2017 11:00:00 9,4 1,2 22 12 25 14 WZW 1008,5 10
24.11.2017 10:00:00 9,3 2,3 28 15 - - WNW 1007,7 10
24.11.2017 09:00:00 9,4 1,5 26 14 25 14 WNW 1007,1 10
24.11.2017 08:00:00 9,4 2,1 24 13 25 14 WNW 1006,4 10
24.11.2017 07:00:00 9,5 2,0 22 12 - - W 1005,6 10
24.11.2017 06:00:00 9,6 3,4 18 10 25 14 W 1005,2 10
24.11.2017 05:00:00 9,8 3,1 21 11 25 14 ZW 1005,3 10
24.11.2017 04:00:00 9,9 3,1 26 14 - - ZW 1005,4 10
24.11.2017 03:00:00 10,0 3,8 24 13 29 16 W 1005,5 10
24.11.2017 02:00:00 10,1 3,4 29 16 32 18 ZW 1005,4 10
24.11.2017 01:00:00 10,3 3,5 34 18 - - ZW 1005,5 10
24.11.2017 00:00:00 10,6 3,5 42 23 43 23 ZW 1005,4 10
23.11.2017 23:00:00 11,0 3,9 46 25 47 25 ZW 1005,0 10
23.11.2017 22:00:00 11,2 4,3 48 26 - - ZW 1004,5 10
23.11.2017 21:00:00 11,4 4,0 59 32 61 33 ZW 1003,8 10
23.11.2017 20:00:00 11,8 4,9 63 34 65 35 ZZW 1003,1 10
23.11.2017 19:00:00 11,8 3,2 68 37 - - ZZW 1002,3 10
23.11.2017 18:00:00 11,5 3,8 68 37 68 37 ZZW 1001,6 10
23.11.2017 17:00:00 11,2 3,3 63 34 65 35 Z 1000,4 10
23.11.2017 16:00:00 11,1 1,6 59 32 - - ZZW 999,6 10
23.11.2017 15:00:00 10,7 2,4 52 28 50 27 ZZW 998,7 10
23.11.2017 14:00:00 10,9 2,6 52 28 58 31 ZW 997,2 10
23.11.2017 13:00:00 10,8 6,2 44 24 - - W 996,2 10
23.11.2017 12:00:00 10,3 7,9 50 27 68 37 W 994,8 7
23.11.2017 11:00:00 13,4 11,0 70 38 72 39 Z 992,8 10
23.11.2017 10:00:00 12,5 10,3 76 41 - - Z 990,9 10
23.11.2017 09:00:00 12,4 9,5 81 44 86 47 Z 989,6 7
23.11.2017 08:00:00 13,1 7,8 81 44 83 45 Z 989,1 10
23.11.2017 07:00:00 13,0 7,8 78 42 - - Z 989,2 10
23.11.2017 06:00:00 13,1 7,5 76 41 79 43 Z 989,8 10
23.11.2017 05:00:00 13,5 7,0 76 41 79 43 Z 989,7 10
23.11.2017 04:00:00 13,2 7,1 80 43 - - Z 990,4 10
23.11.2017 03:00:00 13,1 7,6 70 38 76 41 Z 991,1 10
23.11.2017 02:00:00 13,1 7,5 70 38 72 39 Z 991,7 10
23.11.2017 01:00:00 13,0 7,4 70 38 - - Z 992,7 10
23.11.2017 00:00:00 12,8 7,1 72 39 79 43 Z 993,3 10
22.11.2017 23:00:00 12,7 6,9 72 39 79 43 Z 993,8 10
22.11.2017 22:00:00 12,5 7,0 70 38 - - Z 994,5 10
22.11.2017 21:00:00 12,4 7,3 78 42 76 41 ZZW 995,3 10
22.11.2017 20:00:00 12,5 7,5 70 38 68 37 Z 996,0 10
22.11.2017 19:00:00 12,5 7,7 74 40 - - Z 996,5 10
22.11.2017 18:00:00 12,7 7,8 74 40 76 41 ZZW 996,8 10
22.11.2017 17:00:00 12,4 8,3 68 37 68 37 Z 997,7 10
22.11.2017 16:00:00 12,7 8,3 70 38 - - ZZO 998,2 10
22.11.2017 15:00:00 12,5 8,8 59 32 68 37 ZZW 999,0 10
22.11.2017 14:00:00 12,4 9,1 61 33 65 35 ZZO 999,6 10
22.11.2017 13:00:00 11,9 9,4 67 36 - - ZZW 1000,1 9
22.11.2017 12:00:00 12,2 9,9 67 36 68 37 Z 1001,0 10
22.11.2017 11:00:00 12,6 10,4 68 37 68 37 Z 1001,1 9
22.11.2017 10:00:00 12,9 10,5 68 37 - - Z 1001,0 9
22.11.2017 09:00:00 12,9 10,6 67 36 68 37 Z 1000,3 10
22.11.2017 08:00:00 13,0 10,6 65 35 65 35 Z 1000,6 10
22.11.2017 07:00:00 12,8 10,8 59 32 - - Z 1000,5 9
22.11.2017 06:00:00 12,9 10,6 63 34 65 35 Z 1000,6 10
22.11.2017 05:00:00 12,7 10,7 59 32 61 33 Z 1000,8 10
22.11.2017 04:00:00 12,9 10,7 59 32 - - Z 1001,4 9
22.11.2017 03:00:00 12,9 10,6 63 34 68 37 Z 1001,6 9
22.11.2017 02:00:00 13,1 10,5 65 35 65 35 Z 1001,8 10
22.11.2017 01:00:00 12,0 11,3 57 31 - - Z 1002,3 3,3
22.11.2017 00:00:00 12,1 11,2 57 31 58 31 Z 1002,9 4,4
21.11.2017 23:00:00 12,3 10,8 54 29 54 29 Z 1003,4 8
21.11.2017 22:00:00 12,6 10,0 50 27 - - Z 1004,0 10
21.11.2017 21:00:00 12,5 9,7 50 27 50 27 Z 1004,6 10
21.11.2017 20:00:00 12,4 9,5 41 22 43 23 Z 1005,1 10
21.11.2017 19:00:00 12,4 10,1 42 23 - - Z 1005,6 10
21.11.2017 18:00:00 12,2 10,3 44 24 47 25 ZZW 1006,3 10
21.11.2017 17:00:00 12,2 10,4 50 27 47 25 ZZW 1006,6 10
21.11.2017 16:00:00 12,2 10,6 52 28 - - ZZW 1006,5 10
21.11.2017 15:00:00 12,3 10,8 46 25 47 25 ZZW 1006,6 10
21.11.2017 14:00:00 12,3 10,9 46 25 47 25 ZZW 1007,0 5
21.11.2017 13:00:00 12,5 11,1 46 25 - - ZZW 1007,4 10
21.11.2017 12:00:00 12,3 11,3 41 22 43 23 ZZW 1008,0 10
21.11.2017 11:00:00 12,0 11,5 34 18 36 19 ZZW 1008,4 2,8
21.11.2017 10:00:00 11,3 11,0 18 10 - - Z 1008,7 2,5
21.11.2017 09:00:00 11,7 11,1 28 15 29 16 ZZW 1008,8 6
21.11.2017 08:00:00 11,7 11,2 24 13 29 16 ZZW 1008,8 3,9
21.11.2017 07:00:00 11,6 10,7 29 16 - - ZW 1008,9 4,3
21.11.2017 06:00:00 11,6 10,2 31 17 32 18 ZW 1008,8 10
21.11.2017 05:00:00 11,7 10,1 35 19 36 19 ZW 1009,0 10
21.11.2017 04:00:00 11,7 10,2 34 18 - - ZW 1009,1 10
21.11.2017 03:00:00 11,7 10,4 39 21 36 19 W 1009,4 10
21.11.2017 02:00:00 11,7 10,3 35 19 43 23 WNW 1009,1 10
21.11.2017 01:00:00 11,8 10,3 42 23 - - W 1009,2 10
21.11.2017 00:00:00 11,9 10,5 42 23 43 23 W 1009,0 10
20.11.2017 23:00:00 11,8 10,7 37 20 43 23 W 1008,7 10
20.11.2017 22:00:00 11,9 10,4 42 23 - - WNW 1008,4 10
20.11.2017 21:00:00 12,1 10,5 50 27 58 31 WNW 1008,0 10
20.11.2017 20:00:00 12,2 10,5 46 25 54 29 W 1007,5 10
20.11.2017 19:00:00 12,1 10,5 41 22 - - W 1007,4 9
20.11.2017 18:00:00 11,4 10,8 50 27 50 27 ZW 1007,1 2,9
20.11.2017 17:00:00 11,2 10,5 46 25 47 25 ZW 1007,3 2,4
20.11.2017 16:00:00 11,2 10,2 44 24 - - ZW 1007,7 10
20.11.2017 15:00:00 10,7 10,1 37 20 40 21 ZW 1008,4 3,7
20.11.2017 14:00:00 10,5 9,7 39 21 43 23 ZZW 1009,3 5
20.11.2017 13:00:00 10,6 9,5 41 22 - - ZZW 1010,2 5
20.11.2017 12:00:00 10,3 9,4 44 24 54 29 ZZW 1011,7 3,8
20.11.2017 11:00:00 8,8 7,9 44 24 47 25 ZZW 1012,8 6
20.11.2017 10:00:00 8,4 7,0 44 24 - - Z 1013,8 7
20.11.2017 09:00:00 7,8 5,4 34 18 32 18 Z 1015,1 10
20.11.2017 08:00:00 7,4 4,2 35 19 36 19 ZZW 1016,0 10
20.11.2017 07:00:00 7,0 2,6 26 14 - - ZZW 1017,0 10
20.11.2017 06:00:00 7,1 1,9 31 17 40 21 ZZW 1017,6 10
20.11.2017 05:00:00 8,5 -1,4 29 16 36 19 W 1017,8 10
20.11.2017 04:00:00 8,7 2,1 34 18 - - ZW 1018,0 10
20.11.2017 03:00:00 8,5 2,9 34 18 36 19 ZW 1018,7 10
20.11.2017 02:00:00 8,6 2,5 37 20 40 21 W 1019,0 10
20.11.2017 01:00:00 8,8 3,2 39 21 - - W 1019,7 10
20.11.2017 00:00:00 9,0 3,2 34 18 36 19 WNW 1019,6 10
19.11.2017 23:00:00 9,1 0,8 35 19 43 23 WNW 1019,8 10
19.11.2017 22:00:00 9,1 2,3 44 24 - - NW 1020,2 10
19.11.2017 21:00:00 8,5 1,6 54 29 54 29 NW 1020,0 10
19.11.2017 20:00:00 8,7 3,9 46 25 47 25 NW 1019,4 10
19.11.2017 19:00:00 9,0 3,5 52 28 - - NW 1019,0 10
19.11.2017 18:00:00 8,7 4,6 41 22 54 29 NW 1018,8 10
19.11.2017 17:00:00 9,3 2,6 52 28 54 29 NW 1018,8 10
19.11.2017 16:00:00 9,4 3,0 54 29 - - NW 1018,5 10
19.11.2017 15:00:00 8,8 3,9 54 29 58 31 NW 1017,9 10
19.11.2017 14:00:00 8,6 3,6 54 29 65 35 NW 1017,6 10
19.11.2017 13:00:00 9,3 4,0 55 30 - - NW 1017,8 10
19.11.2017 12:00:00 8,9 4,2 57 31 65 35 NW 1017,6 10
19.11.2017 11:00:00 9,5 4,2 59 32 61 33 NW 1017,0 10
19.11.2017 10:00:00 8,8 3,6 67 36 - - NW 1016,8 10
19.11.2017 09:00:00 9,3 2,9 68 37 - - NW 1015,5 18
19.11.2017 08:00:00 9,4 2,9 65 35 72 39 NW 1015,6 10
19.11.2017 07:00:00 9,0 3,4 67 36 - - NW 1014,9 10
19.11.2017 06:00:00 8,1 2,9 68 37 72 39 NW 1015,0 10
19.11.2017 05:00:00 8,7 3,4 67 36 68 37 NW 1014,5 10
19.11.2017 04:00:00 9,3 3,5 63 34 - - NW 1014,5 10
19.11.2017 03:00:00 8,1 4,2 55 30 68 37 NW 1014,1 10
19.11.2017 02:00:00 8,8 3,2 57 31 54 29 NW 1013,8 10
19.11.2017 01:00:00 8,8 1,6 48 26 - - NW 1014,4 10
19.11.2017 00:00:00 8,3 1,8 52 28 72 39 NW 1014,5 10
18.11.2017 23:00:00 8,3 2,9 48 26 54 29 NW 1014,3 10
18.11.2017 22:00:00 8,7 0,6 52 28 - - NW 1015,0 10
18.11.2017 21:00:00 8,6 2,1 46 25 54 29 NW 1014,9 10
18.11.2017 20:00:00 8,6 1,5 48 26 47 25 NW 1015,1 10
18.11.2017 19:00:00 9,2 0,9 39 21 - - WNW 1015,0 10
18.11.2017 18:00:00 8,9 2,3 41 22 47 25 NW 1015,4 10
18.11.2017 17:00:00 9,4 1,4 44 24 47 25 WNW 1015,4 10

tt = temperatuur
td = dauwpunt
ff = windsnelheid
fx = windstoten
dd = windrichting
ppp = luchtdruk
vv = zicht

Weerstations in de omgeving